Weather History for KVCB - July, 2013

Change the Weather History Date:

Monday, July 1, 2013

  Actual Average Record
Temperature  
Mean Temperature 85 °F -  
Max Temperature 104 °F 90 °F 110 °F (1950)
Min Temperature 66 °F 55 °F 45 °F (1975)
Cooling Degree Days 20    
Growing Degree Days 35 (Base 50)    
Moisture  
Dew Point 58 °F    
Average Humidity 42    
Maximum Humidity 70    
Minimum Humidity 21    
Precipitation  
Precipitation 0.00 in - - ()
Sea Level Pressure  
Sea Level Pressure 29.78 in    
Wind  
Wind Speed 4 mph (SSE)    
Max Wind Speed 8 mph    
Max Gust Speed -    
Visibility 10 miles    
Events      
Averages and records for this station are not official NWS values.
T = Trace of Precipitation, MM = Missing Value Source: NWS Daily Summary

Daily Weather History Graph

Daily Weather History Graph

Search for Another Location

Airport or City:

Trip Planner

Search our weather history database for the weather conditions in past years. The results will help you decide how hot, cold, wet, or windy it might be!

Date:

Astronomy

Jul. 01, 2013 Rise Set
Actual Time 5:47 AM PDT 8:35 PM PDT
Civil Twilight 5:16 AM PDT 9:06 PM PDT
Nautical Twilight 4:36 AM PDT 9:46 PM PDT
Astronomical Twilight 3:51 AM PDT 10:31 PM PDT
Moon 1:17 AM PDT (7/1) 2:58 PM PDT (7/1)
Length of Visible Light 15h 50m
Length of Day
14h 47m
Waning Crescent, 34% of the Moon is Illuminated
Jul 1
Waning Crescent
Jul 8
New
Jul 15
First Quarter
Jul 22
Full
Jul 29
Last Quarter

Hourly Weather History & Observations

Time (PDT) Temp. Heat Index Dew Point Humidity Pressure Visibility Wind Dir Wind Speed Gust Speed Precip Events Conditions
12:53 AM 75.0 °F - 55.0 °F 50% 29.72 in 10.0 mi South 4.6 mph - N/A   Clear
1:53 AM 73.9 °F - 55.0 °F 52% 29.73 in 10.0 mi SSW 4.6 mph - N/A   Clear
2:53 AM 71.1 °F - 55.9 °F 59% 29.73 in 10.0 mi SW 6.9 mph - N/A   Clear
3:53 AM 70.0 °F - 55.0 °F 59% 29.74 in 10.0 mi SW 6.9 mph - N/A   Clear
4:53 AM 66.0 °F - 55.0 °F 68% 29.76 in 10.0 mi Calm Calm - N/A   Clear
5:53 AM 66.0 °F - 55.9 °F 70% 29.77 in 10.0 mi Calm Calm - N/A   Clear
6:53 AM 70.0 °F - 55.9 °F 61% 29.78 in 10.0 mi Calm Calm - N/A   Clear
7:53 AM 71.1 °F - 57.9 °F 63% 29.80 in 10.0 mi NE 3.5 mph - N/A   Clear
8:53 AM 80.1 °F 80.9 °F 60.1 °F 50% 29.81 in 10.0 mi NNE 3.5 mph - N/A   Clear
9:53 AM 88.0 °F 87.9 °F 61.0 °F 40% 29.81 in 10.0 mi North 3.5 mph - N/A   Clear
10:53 AM 91.0 °F 90.9 °F 61.0 °F 36% 29.81 in 10.0 mi Variable 5.8 mph - N/A   Clear
11:53 AM 93.9 °F 93.2 °F 59.0 °F 31% 29.81 in 10.0 mi Variable 3.5 mph - N/A   Clear
12:53 PM 97.0 °F 96.5 °F 59.0 °F 28% 29.81 in 10.0 mi Variable 3.5 mph - N/A   Clear
1:53 PM 100.9 °F 101.6 °F 60.1 °F 26% 29.80 in 10.0 mi SSE 4.6 mph - N/A   Clear
2:53 PM 100.9 °F 101.0 °F 59.0 °F 25% 29.79 in 10.0 mi Variable 3.5 mph - N/A   Clear
3:53 PM 102.9 °F 103.0 °F 57.9 °F 23% 29.78 in 10.0 mi East 8.1 mph - N/A   Clear
4:53 PM 104.0 °F 103.4 °F 57.0 °F 21% 29.77 in 10.0 mi SSE 6.9 mph - N/A   Clear
5:53 PM 102.0 °F 101.1 °F 55.9 °F 22% 29.76 in 10.0 mi SE 6.9 mph - N/A   Clear
6:53 PM 100.0 °F 99.7 °F 57.9 °F 25% 29.76 in 10.0 mi South 6.9 mph - N/A   Clear
7:53 PM 95.0 °F 94.0 °F 57.9 °F 29% 29.77 in 10.0 mi South 5.8 mph - N/A   Clear
8:53 PM 88.0 °F 87.1 °F 59.0 °F 37% 29.77 in 10.0 mi Calm Calm - N/A   Clear
9:53 PM 86.0 °F 85.7 °F 60.1 °F 41% 29.78 in 10.0 mi Calm Calm - N/A   Clear
10:53 PM 82.9 °F 83.3 °F 61.0 °F 47% 29.78 in 10.0 mi Calm Calm - N/A   Clear
11:53 PM 84.9 °F 84.8 °F 60.1 °F 43% 29.78 in 10.0 mi Calm Calm - N/A   Clear